Regional Weather Roundup
Issued by NWS

Home | Current Version | Previous Version | Text Only | Print | Product List | Glossary Off
Versions: 1 2 3 4 5 6 7 8 9 10 11 12 13 14 15 16 17 18 19 20 21 22 23 24 25 26 27 28 29 30 31 32 33 34 35 36 37 38 39 40 41 42 43 44 45 46 47 48 49 50

851
ASUS45 KSLC 071210
RWRUT

UTAH REGIONAL WEATHER ROUNDUP
NATIONAL WEATHER SERVICE SALT LAKE CITY UT
500 AM MST WED DEC 07 2016

UTZ001>011-023>025-071300-

NORTHERN UTAH

CITY           SKY/WX    TMP DP  RH WIND       PRES   REMARKS
BRIGHAM CITY     N/A     21  11  65 CALM      30.13R
HILL AFB       CLOUDY    20  11  66 N7        30.09R WCI  12
LOGAN          CLOUDY    19  13  77 N8        30.12R WCI   9
OGDEN          CLOUDY    22  12  65 NW7       30.10R WCI  13
SALT LAKE CITY CLOUDY    24  14  65 NW6       30.11R WCI  17
TOOELE VALLEY  CLOUDY    23  18  80 NW8       30.12R WCI  14
WENDOVER       CLEAR     19   3  49 NE8       30.14R WCI   9
HEBER CITY     CLOUDY    14   9  79 CALM      30.01R
WEST JORDAN    CLOUDY    21  19  94 NW5       30.11R WCI  14

$$

UTZ011>015-024>027-071300-

CENTRAL/NORTHEAST UTAH

CITY           SKY/WX    TMP DP  RH WIND       PRES   REMARKS
PROVO AIRPORT  PTCLDY    22  16  78 N9        30.10R WCI  12
MOAB/CANYONLAN CLEAR     24   2  38 W9        30.01R WCI  14
DELTA          CLOUDY    19  12  73 CALM      30.09R
PRICE          CLEAR     15   6  67 NW7       29.98R WCI   5
ROOSEVELT      CLEAR     19   3  49 W9        30.02R WCI   9
VERNAL         CLEAR     12   2  64 W3        30.00R

$$

UTZ013>016-019>022-027-071300-

SOUTHERN UTAH

CITY           SKY/WX    TMP DP  RH WIND       PRES   REMARKS
BRYCE CANYON   NOT AVBL
CEDAR CITY     CLEAR     14   9  80 CALM      30.02R
MILFORD        CLEAR     11   5  77 N5        30.06R WCI   3
ST GEORGE      MOSUNNY   34  10  37 S6        30.06R WCI  29
HANKSVILLE     CLEAR     25  10  54 N7        30.05R WCI  17
BLANDING       PTCLDY    23  13  66 SW5       30.03R WCI  17

$$

REGIONAL REPORTS     COLORADO/ARIZONA

CITY           SKY/WX    TMP DP  RH WIND       PRES   REMARKS
CRAIG, CO      CLOUDY     9   5  84 CALM      29.97R
GRAND JUNCTION CLEAR     14  14 100 NE3       29.99R
RIFLE, CO      CLOUDY    19  17  92 W3        29.97R
MONTROSE, CO   CLOUDY    23  17  78 CALM      29.99R
CORTEZ, CO     CLOUDY    26  19  74 N3        29.97R
COLORADO CITY    N/A     21  16  79 CALM      30.02R
PAGE, AZ       CLOUDY    38   7  27 NW10      29.98R WCI  31
GRAND CANYON   CLOUDY    32  32 100 SW6       29.97R WCI  26
KINGMAN, AZ    PTCLDY    37  26  64 SE8       29.96R WCI  31
FLAGSTAFF, AZ  CLOUDY    31  28  89 W3        29.96R

$$

REGIONAL REPORTS    NEVADA/IDAHO/WYOMING

CITY           SKY/WX    TMP DP  RH WIND       PRES   REMARKS
LAS VEGAS, NV  MOCLDY    45   9  23 NE14      30.02R
ELY, NY        MOCLDY     7   2  80 S12       30.04R WCI  -8
ELKO, NV       CLEAR     15   9  76 E3        30.13R
POCATELLO, ID  FLURRIES  15  11  83 W6        30.14R WCI   6
BURLEY, ID     FLURRIES  19  15  84 W9        30.16R WCI   8
FORT BRIDGER,    N/A      1  -3  80 W7        29.97R WCI -11
EVANSTON, WY   CLOUDY     6  -1  73 W10       29.95R WCI  -9
ROCK SPRINGS,  LGT SNOW   5   2  87 NE7       29.94R FOG     WCI  -7

$$




USA.gov is the U.S. government's official web portal to all federal, state and local government web resources and services.